Change the Weather History Date:

Wednesday, May 14, 2014

  Actual Average Record
Temperature  
Mean Temperature 52 °F -  
Max Temperature 68 °F 75 °F 100 °F (2013)
Min Temperature 38 °F 50 °F 33 °F (2004)
Degree Days  
Heating Degree Days 12    
Growing Degree Days 2 (Base 50)    
Moisture  
Dew Point 36 °F    
Average Humidity 59    
Maximum Humidity 94    
Minimum Humidity 22    
Precipitation  
Precipitation 0.01 in - - ()
Sea Level Pressure  
Sea Level Pressure 30.22 in    
Wind  
Wind Speed 4 mph (WNW)    
Max Wind Speed 20 mph    
Max Gust Speed 31 mph    
Visibility 10 miles    
Events Rain    
Averages and records for this station are not official NWS values.
T = Trace of Precipitation, MM = Missing Value Source: NWS Daily Summary

Daily Weather History Graph

Daily Weather History Graph

Search for Another Location

Airport or City:

Trip Planner

Search our weather history database for the weather conditions in past years. The results will help you decide how hot, cold, wet, or windy it might be!

Date:

Astronomy

May. 14, 2014 Rise Set
Actual Time 6:08 AM CDT 8:37 PM CDT
Civil Twilight 5:36 AM CDT 9:08 PM CDT
Nautical Twilight 4:57 AM CDT 9:48 PM CDT
Astronomical Twilight 4:13 AM CDT 10:32 PM CDT
Moon 8:43 PM CDT (5/14) 6:08 AM CDT (5/14)
Length of Visible Light 15h 32m
Length of Day
14h 29m
Full, 100% of the Moon is Illuminated
May 14
Full
May 14
Full
May 21
Last Quarter
May 28
New
Jun 5
First Quarter

Hourly Weather History & Observations

Time (CDT) Temp. Windchill Dew Point Humidity Pressure Visibility Wind Dir Wind Speed Gust Speed Precip Events Conditions
12:15 AM 44.8 °F - 38.3 °F 78% 30.30 in 10.0 mi Calm Calm - N/A   Clear
12:35 AM 44.6 °F 43.1 °F 38.5 °F 79% 30.30 in 10.0 mi WNW 3.5 mph - N/A   Clear
1:15 AM 44.2 °F 42.7 °F 37.8 °F 78% 30.29 in 10.0 mi West 3.5 mph - N/A   Clear
1:35 AM 43.7 °F 42.1 °F 37.8 °F 80% 30.29 in 10.0 mi WSW 3.5 mph - N/A   Clear
1:55 AM 44.4 °F - 37.6 °F 77% 30.29 in 10.0 mi Calm Calm - N/A   Clear
2:15 AM 43.2 °F - 37.6 °F 81% 30.29 in 10.0 mi Calm Calm - N/A   Clear
2:35 AM 42.8 °F - 38.3 °F 84% 30.29 in 10.0 mi Calm Calm - N/A   Clear
2:55 AM 42.3 °F - 38.3 °F 86% 30.29 in 10.0 mi Calm Calm - N/A   Clear
3:15 AM 42.6 °F - 38.5 °F 85% 30.28 in 10.0 mi Calm Calm - N/A   Clear
3:35 AM 41.4 °F - 38.3 °F 89% 30.28 in 10.0 mi Calm Calm - N/A   Clear
3:55 AM 40.1 °F - 37.4 °F 90% 30.28 in 10.0 mi Calm Calm - N/A   Clear
4:15 AM 39.2 °F - 37.2 °F 93% 30.28 in 10.0 mi Calm Calm - N/A   Clear
4:35 AM 39.2 °F 37.0 °F 37.4 °F 93% 30.28 in 10.0 mi WNW 3.5 mph - N/A   Clear
4:55 AM 38.5 °F 36.1 °F 36.9 °F 94% 30.28 in 10.0 mi WNW 3.5 mph - N/A   Clear
5:15 AM 38.8 °F 35.4 °F 36.9 °F 93% 30.28 in 10.0 mi WNW 4.6 mph - N/A   Clear
6:15 AM 38.5 °F - 36.7 °F 93% 30.29 in 10.0 mi Calm Calm - N/A   Clear
6:35 AM 38.5 °F - 36.5 °F 93% 30.28 in 10.0 mi Calm Calm - N/A   Clear
6:55 AM 38.5 °F - 36.7 °F 93% 30.29 in 10.0 mi Calm Calm - N/A   Clear
7:15 AM 39.4 °F - 37.6 °F 93% 30.28 in 10.0 mi Calm Calm - N/A   Clear
7:35 AM 41.2 °F - 39.2 °F 93% 30.28 in 10.0 mi Calm Calm - N/A   Clear
7:55 AM 43.5 °F 41.9 °F 40.6 °F 90% 30.28 in 10.0 mi WNW 3.5 mph - N/A   Clear
8:15 AM 44.6 °F 41.4 °F 39.4 °F 82% 30.28 in 10.0 mi West 5.8 mph - N/A   Clear
8:35 AM 45.7 °F 43.4 °F 39.0 °F 78% 30.28 in 10.0 mi West 4.6 mph - 0.01 in   Clear
8:55 AM 48.4 °F - 38.7 °F 69% 30.28 in 10.0 mi West 6.9 mph - 0.01 in   Clear
9:10 AM 50.4 °F - 39.2 °F 66% 30.28 in 10.0 mi West 6.9 mph - N/A   Clear
9:37 AM 55.4 °F - 37.4 °F 51% 30.28 in 10.0 mi WSW 8.1 mph - N/A   Clear
10:20 AM 58.3 °F - 34.3 °F 41% 30.26 in 10.0 mi WSW 9.2 mph - N/A   Clear
10:35 AM 59.0 °F - 31.5 °F 35% 30.25 in 10.0 mi WSW 9.2 mph - N/A   Clear
10:55 AM 60.8 °F - 32.0 °F 34% 30.26 in 10.0 mi West 9.2 mph - N/A   Clear
11:15 AM 61.5 °F - 32.5 °F 34% 30.25 in 10.0 mi WSW 9.2 mph - N/A   Clear
11:55 AM 62.4 °F - 35.8 °F 37% 30.23 in 10.0 mi WNW 8.1 mph - N/A   Clear
12:35 PM 63.7 °F - 32.4 °F 31% 30.21 in 10.0 mi NW 6.9 mph - N/A   Clear
1:15 PM 64.2 °F - 30.2 °F 28% 30.19 in 10.0 mi SSW 4.6 mph - N/A   Scattered Clouds
1:35 PM 65.3 °F - 30.7 °F 27% 30.18 in 10.0 mi Calm Calm - N/A   Mostly Cloudy
1:55 PM 64.9 °F - 31.1 °F 28% 30.17 in 10.0 mi WNW 3.5 mph - N/A   Mostly Cloudy
2:15 PM 66.2 °F - 26.8 °F 23% 30.16 in 10.0 mi Calm Calm - N/A   Mostly Cloudy
2:35 PM 67.8 °F - 27.3 °F 22% 30.16 in 10.0 mi NW 4.6 mph - N/A   Scattered Clouds
3:35 PM 66.0 °F - 28.9 °F 25% 30.14 in 10.0 mi West 11.5 mph - N/A   Mostly Cloudy
3:55 PM 67.5 °F - 29.8 °F 25% 30.13 in 10.0 mi West 10.4 mph - N/A   Scattered Clouds
4:15 PM 63.0 °F - 33.4 °F 33% 30.15 in 10.0 mi WNW 17.3 mph 31.1 mph N/A   Mostly Cloudy
4:35 PM 62.4 °F - 33.4 °F 34% 30.15 in 10.0 mi NW 17.3 mph 23.0 mph N/A   Overcast
4:55 PM 61.7 °F - 33.3 °F 34% 30.14 in 10.0 mi NW 10.4 mph 16.1 mph N/A   Mostly Cloudy
5:15 PM 64.6 °F - 33.6 °F 32% 30.13 in 10.0 mi WNW 6.9 mph - N/A   Scattered Clouds
5:35 PM 64.2 °F - 33.1 °F 31% 30.13 in 10.0 mi WSW 4.6 mph - N/A   Clear
5:55 PM 63.7 °F - 33.6 °F 33% 30.13 in 10.0 mi West 4.6 mph - N/A   Scattered Clouds
6:15 PM 59.5 °F - 36.9 °F 43% 30.14 in 10.0 mi NW 19.6 mph 29.9 mph N/A   Mostly Cloudy
6:35 PM 56.3 °F - 44.8 °F 65% 30.14 in 10.0 mi NW 11.5 mph 17.3 mph N/A Rain Light Rain
6:55 PM 55.2 °F - 38.8 °F 54% 30.13 in 10.0 mi North 8.1 mph 24.2 mph N/A Rain Light Rain
7:10 PM 59.5 °F - 36.3 °F 42% 30.12 in 10.0 mi Calm Calm - N/A   Mostly Cloudy
8:00 PM 57.0 °F - 40.3 °F 54% 30.13 in 10.0 mi NW 8.1 mph - N/A   Clear
8:15 PM 55.0 °F - 40.6 °F 58% 30.13 in 10.0 mi NW 6.9 mph - N/A   Clear
8:35 PM 52.2 °F - 41.7 °F 68% 30.13 in 10.0 mi WNW 5.8 mph - N/A   Clear
8:55 PM 51.4 °F - 43.2 °F 73% 30.13 in 10.0 mi WNW 5.8 mph - N/A   Clear
9:15 PM 54.9 °F - 39.0 °F 55% 30.15 in 10.0 mi NNW 9.2 mph 16.1 mph N/A   Clear
9:35 PM 55.4 °F - 37.4 °F 51% 30.16 in 10.0 mi North 8.1 mph - N/A   Clear
9:55 PM 55.4 °F - 37.6 °F 51% 30.17 in 10.0 mi NNW 11.5 mph 17.3 mph N/A   Mostly Cloudy
10:15 PM 54.7 °F - 37.8 °F 53% 30.18 in 10.0 mi North 13.8 mph 18.4 mph N/A   Mostly Cloudy
10:35 PM 54.0 °F - 35.8 °F 50% 30.19 in 10.0 mi North 10.4 mph 20.7 mph N/A   Scattered Clouds
10:55 PM 53.2 °F - 34.9 °F 50% 30.19 in 10.0 mi North 12.7 mph 20.7 mph N/A   Scattered Clouds
11:15 PM 52.7 °F - 33.3 °F 48% 30.19 in 10.0 mi North 11.5 mph 20.7 mph N/A   Scattered Clouds
11:35 PM 51.8 °F - 34.3 °F 51% 30.20 in 10.0 mi North 9.2 mph - N/A   Scattered Clouds
11:55 PM 51.1 °F - 31.3 °F 47% 30.21 in 10.0 mi North 11.5 mph 24.2 mph N/A   Mostly Cloudy